SL-12 R/B(2), 16214

Orbit data source: Space-Track

SL-12 R/B(2), 16214 is space debris in GEO originally from a launch on Fri, 25 Oct 1985 UTC launched from the Tyuratam Missile And Space Complex (TTMTR). Debris objects in space refer to the collection of defunct objects orbiting the Earth. Examples of debris include non-operational satellites, rocket bodies, and fragments generated from explosions, collisions, or faulty payload assembly.

Loading next visibility...
Identifier
16214, 1985-102D
Orbit
GEO
Country
Flag of CISCIS
Related business
Manufacturer
NPO Energiya
Mission
Spacecraft
Bus & Motor
BLOK DM, Unknown motor
Mass
2,440 kg wet, 2,440 kg dry
Launch date (UTC)
1985-10-25 (41 years ago)
Launch vehicle
Unknown
Launch site
Tyuratam Missile And Space Complex (TTMTR)
Object type
Payload
Rocket body
Debris
Shape & HBR
Unknown
Radar Cross Section
Large (>1 m²)

Expand to show TLE details & history
Last TLE update: 2 days ago

TLE from 2 days ago
0 SL-12 R/B(2)
1 16214U 85102D   26171.24209013 -.00000228  00000-0  00000+0 0  9990
2 16214   9.4429 318.0165 0019782 158.0929 202.6207  1.00620401124874
Epoch: 2026-06-20T05:48Z
TLE epoch observation values (Epoch: 2026-06-20T05:48:36.587Z)
Latitude
0.0963°
Longitude
-36.98686°
Altitude
35,765.565 km
Speed
3.073 km/s
True Right ascension
21h 14m 30s
True Declination
0° 05' 46"
Sunlit
Object was in daylight at epoch
Visualization orbit readout
Latitude
Unknown
Longitude
Unknown
Altitude
Unknown
Speed
Unknown
Apparent Right ascension
Unknown
Apparent Declination
Unknown
Sunlit
N/A
Visualization observer readout
Local Sidereal Time
23:20:24
Azimuth
Unknown
Elevation
Unknown
Doppler factor
Unknown
Orbital elements
Apogee altitude
35,773.398 km
Perigee altitude
35,606.958 km
Semi-major axis
42,068.315 km
Eccentricity
0.00198
Inclination
9.4429°
RAAN
318.0165°
Arg. of periapsis
158.0929°
True anomaly
202.53371°
Mean anomaly
202.6207°
Eccentric anomaly
202.57718°
Mean motion
0.25154 °/min
Orbital period
1,431.17 mins
BSTAR
0
Loading maneuver chart data...
Computing Atmospheric mass density...
Loading historical data...
Loading historical data...
Loading historical data...
Loading historical data...
Loading historical data...
Loading historical data...
Loading historical data...

Documentation

Showing up to 5 results
|